Weather History for Tracy, MN

Change the Weather History Date:

Tuesday, May 7, 2013

  Actual Average (KMML) Record (KMML)
Temperature  
Mean Temperature 60 °F -  
Max Temperature 75 °F 67 °F 85 °F (1957)
Min Temperature 45 °F 42 °F 26 °F (1976)
Degree Days  
Heating Degree Days 5    
Growing Degree Days 10 (Base 50)    
Moisture  
Dew Point 44 °F    
Average Humidity 58    
Maximum Humidity 91    
Minimum Humidity 29    
Precipitation  
Precipitation 0.00 in - - ()
Sea Level Pressure  
Sea Level Pressure 30.02 in    
Wind  
Wind Speed 0 mph (SSW)    
Max Wind Speed 17 mph    
Max Gust Speed 22 mph    
Visibility 10 miles    
Events      
Averages and records for this station are not official NWS values.
T = Trace of Precipitation, MM = Missing Value Source: NWS Daily Summary

Daily Weather History Graph

Daily Weather History Graph

Search for Another Location

Airport:

Trip Planner

Search our weather history database for the weather conditions in past years. The results will help you decide how hot, cold, wet, or windy it might be!

Date:

Astronomy

May. 07, 2013 Rise Set
Actual Time 6:04 AM CDT 8:33 PM CDT
Civil Twilight 5:32 AM CDT 9:06 PM CDT
Nautical Twilight 4:51 AM CDT 9:47 PM CDT
Astronomical Twilight 4:05 AM CDT 10:33 PM CDT
Moon 4:44 AM CDT (5/7) 6:30 PM CDT (5/7)
Length of Visible Light 15h 34m
Length of Day
14h 28m
Waning Crescent, 5% of the Moon is Illuminated
May 7
Waning Crescent
May 9
New
May 17
First Quarter
May 24
Full
May 31
Last Quarter

Hourly Weather History & Observations

Time (CDT) Temp. Dew Point Humidity Pressure Visibility Wind Dir Wind Speed Gust Speed Precip Events Conditions
12:14 AM 51.1 °F 45.7 °F 82% 30.07 in 10.0 mi Calm Calm - N/A   Clear
12:34 AM 50.5 °F 45.5 °F 83% 30.07 in 10.0 mi Calm Calm - N/A   Clear
12:54 AM 49.8 °F 44.8 °F 83% 30.07 in 10.0 mi Calm Calm - N/A   Clear
1:14 AM 48.9 °F 44.6 °F 85% 30.06 in 10.0 mi Calm Calm - N/A   Clear
1:34 AM 49.1 °F 44.8 °F 85% 30.06 in 10.0 mi Calm Calm - N/A   Clear
1:54 AM 49.1 °F 44.6 °F 84% 30.05 in 10.0 mi Calm Calm - N/A   Clear
2:14 AM 49.3 °F 44.6 °F 84% 30.05 in 10.0 mi Calm Calm - N/A   Clear
2:34 AM 48.0 °F 43.9 °F 86% 30.05 in 10.0 mi Calm Calm - N/A   Clear
2:53 AM 47.3 °F 43.5 °F 87% 30.04 in 10.0 mi Calm Calm - N/A   Clear
3:13 AM 46.8 °F 43.7 °F 89% 30.04 in 10.0 mi Calm Calm - N/A   Clear
3:34 AM 46.8 °F 43.5 °F 88% 30.05 in 10.0 mi Calm Calm - N/A   Clear
3:53 AM 46.2 °F 43.3 °F 90% 30.05 in 10.0 mi Calm Calm - N/A   Clear
4:13 AM 46.6 °F 43.7 °F 90% 30.05 in 10.0 mi Calm Calm - N/A   Clear
4:34 AM 45.9 °F 42.8 °F 89% 30.06 in 10.0 mi Calm Calm - N/A   Clear
4:53 AM 45.5 °F 42.6 °F 90% 30.06 in 7.0 mi Calm Calm - N/A   Clear
5:13 AM 45.0 °F 42.4 °F 91% 30.06 in 7.0 mi Calm Calm - N/A   Clear
5:34 AM 46.4 °F 43.2 °F 88% 30.05 in 10.0 mi Calm Calm - N/A   Clear
5:54 AM 46.4 °F 43.3 °F 89% 30.05 in 7.0 mi Calm Calm - N/A   Clear
6:13 AM 46.8 °F 43.9 °F 90% 30.05 in 7.0 mi Calm Calm - N/A   Clear
6:33 AM 46.6 °F 43.9 °F 90% 30.06 in 5.0 mi Calm Calm - N/A   Clear
6:53 AM 46.8 °F 44.2 °F 91% 30.06 in 5.0 mi Calm Calm - N/A   Clear
7:14 AM 49.1 °F 45.9 °F 89% 30.07 in 7.0 mi Calm Calm - N/A   Clear
7:34 AM 51.4 °F 47.3 °F 86% 30.07 in 7.0 mi Calm Calm - N/A   Clear
7:53 AM 53.8 °F 48.9 °F 84% 30.07 in 7.0 mi Calm Calm - N/A   Clear
8:13 AM 55.9 °F 50.0 °F 80% 30.08 in 7.0 mi Calm Calm - N/A   Clear
8:33 AM 57.6 °F 50.4 °F 77% 30.08 in 10.0 mi Calm Calm - N/A   Clear
8:54 AM 59.5 °F 50.7 °F 73% 30.08 in 10.0 mi Calm Calm - N/A   Clear
9:13 AM 60.8 °F 50.2 °F 68% 30.08 in 10.0 mi Calm Calm - N/A   Clear
9:33 AM 62.1 °F 49.5 °F 63% 30.08 in 10.0 mi Calm Calm - N/A   Clear
9:54 AM 63.1 °F 47.1 °F 56% 30.08 in 10.0 mi Calm Calm - N/A   Clear
10:14 AM 64.2 °F 46.6 °F 53% 30.08 in 10.0 mi Calm Calm - N/A   Clear
10:33 AM 64.2 °F 44.6 °F 49% 30.07 in 10.0 mi Calm Calm - N/A   Clear
10:53 AM 64.8 °F 42.4 °F 44% 30.07 in 10.0 mi Calm Calm - N/A   Clear
11:13 AM 65.7 °F 42.3 °F 43% 30.06 in 10.0 mi Calm Calm - N/A   Clear
11:34 AM 66.7 °F 43.7 °F 43% 30.06 in 10.0 mi Calm Calm - N/A   Clear
11:54 AM 67.8 °F 45.7 °F 45% 30.05 in 10.0 mi Calm Calm - N/A   Clear
12:13 PM 68.7 °F 43.9 °F 41% 30.05 in 10.0 mi Calm Calm - N/A   Clear
12:33 PM 69.8 °F 42.4 °F 37% 30.04 in 10.0 mi Calm Calm - N/A   Clear
12:53 PM 70.3 °F 41.4 °F 35% 30.03 in 10.0 mi Calm Calm - N/A   Clear
1:14 PM 70.9 °F 40.1 °F 33% 30.02 in 10.0 mi Calm Calm - N/A   Clear
1:33 PM 72.1 °F 41.4 °F 33% 30.02 in 10.0 mi Calm Calm - N/A   Clear
1:53 PM 72.5 °F 41.7 °F 33% 30.02 in 10.0 mi Calm Calm - N/A   Clear
2:14 PM 73.4 °F 41.7 °F 32% 30.01 in 10.0 mi Calm Calm - N/A   Clear
2:33 PM 73.6 °F 42.3 °F 32% 30.01 in 10.0 mi Calm Calm - N/A   Clear
2:54 PM 73.8 °F 41.5 °F 31% 30.00 in 10.0 mi Calm Calm - N/A   Clear
3:14 PM 72.9 °F 40.3 °F 31% 30.00 in 10.0 mi Calm Calm - N/A   Scattered Clouds
3:34 PM 74.1 °F 41.7 °F 31% 29.99 in 10.0 mi Calm Calm - N/A   Scattered Clouds
3:53 PM 74.3 °F 41.9 °F 31% 29.99 in 10.0 mi Calm Calm - N/A   Mostly Cloudy
4:13 PM 74.7 °F 41.0 °F 30% 29.98 in 10.0 mi Calm Calm - N/A   Scattered Clouds
4:33 PM 74.5 °F 40.8 °F 30% 29.97 in 10.0 mi South 8.1 mph - N/A   Scattered Clouds
4:54 PM 75.0 °F 40.6 °F 29% 29.97 in 10.0 mi Calm Calm - N/A   Scattered Clouds
5:13 PM 74.7 °F 41.9 °F 31% 29.97 in 10.0 mi Calm Calm - N/A   Scattered Clouds
5:33 PM 74.8 °F 41.9 °F 31% 29.96 in 10.0 mi Calm Calm - N/A   Scattered Clouds
5:53 PM 74.7 °F 42.4 °F 31% 29.96 in 10.0 mi Calm Calm - N/A   Scattered Clouds
6:14 PM 73.6 °F 41.7 °F 32% 29.96 in 10.0 mi Calm Calm - N/A   Clear
6:33 PM 73.4 °F 42.1 °F 32% 29.96 in 10.0 mi South 4.6 mph - N/A   Clear
6:53 PM 72.5 °F 41.0 °F 32% 29.96 in 10.0 mi Calm Calm - N/A   Clear
7:13 PM 71.8 °F 41.0 °F 33% 29.95 in 10.0 mi Calm Calm - N/A   Clear
7:33 PM 71.1 °F 41.2 °F 34% 29.95 in 10.0 mi Calm Calm - N/A   Clear
7:53 PM 70.5 °F 41.7 °F 35% 29.95 in 10.0 mi Calm Calm - N/A   Clear
8:14 PM 69.8 °F 42.6 °F 37% 29.95 in 10.0 mi Calm Calm - N/A   Clear
8:33 PM 68.4 °F 43.7 °F 41% 29.95 in 10.0 mi Calm Calm - N/A   Clear
8:54 PM 67.3 °F 45.0 °F 45% 29.96 in 10.0 mi Calm Calm - N/A   Clear
9:14 PM 66.0 °F 45.5 °F 48% 29.97 in 10.0 mi SSW 17.3 mph 21.9 mph N/A   Clear
9:34 PM 65.3 °F 48.0 °F 54% 29.98 in 10.0 mi SW 15.0 mph - N/A   Mostly Cloudy
9:53 PM 64.0 °F 47.7 °F 55% 29.98 in 10.0 mi SSW 13.8 mph 18.4 mph N/A   Overcast
10:13 PM 64.8 °F 47.7 °F 54% 29.98 in 10.0 mi Calm Calm - N/A   Overcast
10:34 PM 64.8 °F 48.0 °F 55% 29.98 in 10.0 mi Calm Calm - N/A   Overcast
10:53 PM 64.0 °F 47.8 °F 56% 29.97 in 10.0 mi Calm Calm - N/A   Overcast
11:14 PM 63.7 °F 47.5 °F 56% 29.97 in 10.0 mi Calm Calm - N/A   Overcast
11:33 PM 62.1 °F 48.4 °F 61% 29.97 in 10.0 mi Calm Calm - N/A   Overcast
11:53 PM 61.7 °F 48.2 °F 61% 29.97 in 10.0 mi Calm Calm - N/A   Overcast